This is the latest recevied weather packets stored in our database for station/object M0XZS-2. If no packets are shown the sender has not sent any weather packets the latest 10 day(s).
| Time | Temp. | Humidity | Pressure | Rain* | Wind** | Luminosity | Snow |
|---|---|---|---|---|---|---|---|
| 1777183633 | 9.44° C | 46% | 1029.3 hPa | - | - | - | - |
| 1777182733 | 9.44° C | 46% | 1029.3 hPa | - | - | - | - |
| 1777181833 | 9.44° C | 45% | 1029.2 hPa | - | - | - | - |
| 1777180933 | 9.44° C | 46% | 1029.2 hPa | - | - | - | - |
| 1777180033 | 9.44° C | 45% | 1029.3 hPa | - | - | - | - |
| 1777179133 | 9.44° C | 45% | 1029.3 hPa | - | - | - | - |
| 1777178233 | 10° C | 44% | 1029.3 hPa | - | - | - | - |
| 1777177333 | 10° C | 44% | 1029.2 hPa | - | - | - | - |
| 1777176433 | 10° C | 44% | 1029.2 hPa | - | - | - | - |
| 1777175533 | 10° C | 44% | 1029.1 hPa | - | - | - | - |
| 1777174633 | 10.56° C | 43% | 1029.1 hPa | - | - | - | - |
| 1777173733 | 10.56° C | 42% | 1029 hPa | - | - | - | - |
| 1777172833 | 11.11° C | 42% | 1028.8 hPa | - | - | - | - |
| 1777171932 | 11.67° C | 41% | 1028.7 hPa | - | - | - | - |
| 1777171037 | 11.67° C | 41% | 1028.8 hPa | - | - | - | - |
| 1777170137 | 11.11° C | 42% | 1028.8 hPa | - | - | - | - |
| 1777169237 | 11.67° C | 42% | 1028.9 hPa | - | - | - | - |
| 1777168337 | 11.67° C | 42% | 1028.9 hPa | - | - | - | - |
| 1777167437 | 12.22° C | 42% | 1029 hPa | - | - | - | - |
| 1777166537 | 12.22° C | 42% | 1028.9 hPa | - | - | - | - |
| 1777165637 | 12.22° C | 42% | 1028.9 hPa | - | - | - | - |
| 1777164737 | 12.78° C | 42% | 1028.9 hPa | - | - | - | - |
| 1777163837 | 12.78° C | 42% | 1028.8 hPa | - | - | - | - |
| 1777162937 | 12.78° C | 42% | 1028.8 hPa | - | - | - | - |
| 1777162037 | 12.78° C | 42% | 1028.7 hPa | - | - | - | - |
* Rain since midnight (hover to see other rain measurements)
** Current wind speed in m/s (hover to see current wind gust speed)